This is the latest recevied weather packets stored in our database for station/object OK2ILA-1. If no packets are shown the sender has not sent any weather packets the latest 10 day(s).
| Time | Temp. | Humidity | Pressure | Rain* | Wind** | Luminosity | Snow |
|---|---|---|---|---|---|---|---|
| 1777420129 | 1.67° C | 100% | 1025 hPa | 0 mm | - | - | - |
| 1777419409 | 1.67° C | 100% | 1025 hPa | 0 mm | - | - | - |
| 1777418688 | 1.67° C | 100% | 1025 hPa | 0 mm | - | - | - |
| 1777417967 | 1.67° C | 100% | 1025 hPa | 0 mm | - | - | - |
| 1777417247 | 2.22° C | 100% | 1024.9 hPa | 0 mm | - | - | - |
| 1777416526 | 2.22° C | 100% | 1024.8 hPa | 0 mm | - | - | - |
| 1777415805 | 2.22° C | 100% | 1025 hPa | 0 mm | - | - | - |
| 1777415085 | 2.22° C | 100% | 1025 hPa | 0 mm | - | - | - |
| 1777414364 | 2.78° C | 100% | 1025.1 hPa | 0 mm | - | - | - |
| 1777413643 | 3.33° C | 100% | 1025 hPa | 0 mm | - | - | - |
| 1777412923 | 3.89° C | 100% | 1025 hPa | 0 mm | - | - | - |
| 1777412202 | 3.89° C | 100% | 1025 hPa | 0 mm | - | - | - |
| 1777411481 | 5° C | 100% | 1024.9 hPa | 0 mm | - | - | - |
| 1777410761 | 5.56° C | 100% | 1024.8 hPa | 0 mm | - | - | - |
| 1777410040 | 5.56° C | 100% | 1024.8 hPa | 0 mm | - | - | - |
| 1777409319 | 6.11° C | 100% | 1024.8 hPa | 0 mm | - | - | - |
| 1777408598 | 6.11° C | 100% | 1024.9 hPa | 0 mm | - | - | - |
| 1777407878 | 6.11° C | 100% | 1024.7 hPa | 0 mm | - | - | - |
| 1777407157 | 6.67° C | 100% | 1024.6 hPa | 0 mm | - | - | - |
| 1777406436 | 6.67° C | 100% | 1024.6 hPa | 0 mm | - | - | - |
| 1777405716 | 7.22° C | 100% | 1024.5 hPa | 0 mm | - | - | - |
| 1777404995 | 7.78° C | 100% | 1024.3 hPa | 0 mm | - | - | - |
| 1777404274 | 7.78° C | 100% | 1024.2 hPa | 0 mm | - | - | - |
| 1777403554 | 8.33° C | 100% | 1024.2 hPa | 0 mm | - | - | - |
| 1777402833 | 8.33° C | 100% | 1024.1 hPa | 0 mm | - | - | - |
* Rain latest hour (hover to see other rain measurements)
** Current wind speed in m/s (hover to see current wind gust speed)